TimeCDT,TemperatureF,Dew PointF,Humidity,Sea Level PressureIn,VisibilityMPH,Wind Direction,Wind SpeedMPH,Gust SpeedMPH,PrecipitationIn,Events,Conditions,WindDirDegrees,DateUTC
12:53 AM,50.0,46.9,89,29.08,10.0,WNW,21.9,25.3,0.01,Rain,Light Rain,300,2012-10-18 05:53:00
1:53 AM,48.9,46.9,93,29.09,5.0,NW,18.4,25.3,0.02,,Overcast,310,2012-10-18 06:53:00
2:18 AM,48.2,46.4,93,29.08,5.0,NW,17.3,24.2,0.01,,Overcast,310,2012-10-18 07:18:00
2:53 AM,48.9,46.9,93,29.10,4.0,NW,19.6,-,0.01,Rain,Light Rain,310,2012-10-18 07:53:00
3:53 AM,48.0,46.9,96,29.11,5.0,NW,15.0,-,0.02,,Overcast,310,2012-10-18 08:53:00
4:53 AM,48.9,48.0,97,29.12,3.0,NNW,13.8,-,0.00,Rain,Light Rain,340,2012-10-18 09:53:00
5:02 AM,50.0,48.2,94,29.11,2.5,NNW,12.7,-,0.00,Rain,Light Rain,340,2012-10-18 10:02:00
5:23 AM,50.0,48.2,94,29.13,3.0,NE,13.8,-,0.01,Rain,Light Rain,40,2012-10-18 10:23:00
5:26 AM,48.2,48.2,100,29.13,2.0,NE,13.8,-,0.01,Rain,Light Rain,50,2012-10-18 10:26:00
5:33 AM,48.2,46.4,93,29.13,1.5,NE,15.0,-,0.01,,Overcast,50,2012-10-18 10:33:00
5:53 AM,48.0,46.9,96,29.16,10.0,NE,16.1,-,0.01,,Overcast,50,2012-10-18 10:53:00
6:53 AM,46.0,45.0,96,29.21,10.0,NE,16.1,24.2,N/A,,Overcast,40,2012-10-18 11:53:00
7:53 AM,46.0,45.0,96,29.26,10.0,NNE,11.5,-,N/A,,Overcast,20,2012-10-18 12:53:00
8:53 AM,46.9,44.1,90,29.30,10.0,North,16.1,-,N/A,,Overcast,360,2012-10-18 13:53:00
10:02 AM,48.2,46.4,93,29.31,9.0,North,17.3,-,N/A,,Overcast,350,2012-10-18 15:02:00
10:53 AM,50.0,48.0,93,29.34,10.0,NNW,19.6,-,N/A,,Overcast,340,2012-10-18 15:53:00
11:29 AM,48.2,46.4,93,29.35,2.0,NNW,25.3,32.2,N/A,,Overcast,340,2012-10-18 16:29:00
11:43 AM,46.4,46.4,100,29.35,10.0,NNW,29.9,35.7,N/A,,Overcast,340,2012-10-18 16:43:00
11:53 AM,46.9,45.0,93,29.37,10.0,North,31.1,38.0,0.00,Rain,Light Rain,350,2012-10-18 16:53:00
12:33 PM,46.4,44.6,93,29.36,7.0,NNW,27.6,39.1,0.01,Rain,Rain,340,2012-10-18 17:33:00
12:53 PM,46.0,44.1,93,29.38,6.0,NNW,31.1,40.3,0.03,Rain,Rain,340,2012-10-18 17:53:00
1:26 PM,46.4,44.6,93,29.37,9.0,NNW,29.9,46.0,0.04,Rain,Light Rain,340,2012-10-18 18:26:00
1:43 PM,46.4,44.6,93,29.37,9.0,NNW,28.8,44.9,0.06,Rain,Light Rain,340,2012-10-18 18:43:00
1:53 PM,46.0,44.1,93,29.39,8.0,North,32.2,44.9,0.06,Rain,Light Rain,350,2012-10-18 18:53:00
2:53 PM,46.0,44.1,93,29.42,8.0,North,35.7,44.9,0.04,Rain,Light Rain,350,2012-10-18 19:53:00
3:53 PM,46.0,43.0,89,29.45,10.0,North,35.7,46.0,0.01,Rain,Light Rain,350,2012-10-18 20:53:00
4:53 PM,45.0,42.1,90,29.49,6.0,North,33.4,46.0,0.01,Rain,Light Rain,350,2012-10-18 21:53:00
5:43 PM,44.6,41.0,87,29.50,6.0,North,31.1,47.2,0.02,Rain,Light Rain,350,2012-10-18 22:43:00
5:53 PM,44.1,41.0,89,29.52,6.0,North,35.7,46.0,0.02,Rain,Light Rain,350,2012-10-18 22:53:00
6:53 PM,43.0,39.9,89,29.56,10.0,NNW,31.1,42.6,0.00,Rain,Light Rain,340,2012-10-18 23:53:00
7:53 PM,43.0,39.0,86,29.59,10.0,North,38.0,48.3,0.00,,Overcast,350,2012-10-19 00:53:00
8:53 PM,42.1,39.9,92,29.62,3.0,North,36.8,46.0,0.00,Rain,Light Rain,350,2012-10-19 01:53:00
9:53 PM,42.1,39.9,92,29.64,5.0,North,32.2,42.6,0.03,Rain,Light Rain,350,2012-10-19 02:53:00
10:53 PM,41.0,39.0,93,29.65,5.0,NNW,29.9,41.4,0.00,Rain,Light Rain,340,2012-10-19 03:53:00
11:53 PM,42.1,39.0,89,29.68,10.0,North,31.1,39.1,0.00,,Overcast,350,2012-10-19 04:53:00